Regional Weather Roundup
Issued by NWS

Home | Current Version | Previous Version | Text Only | Print | Product List | Glossary Off
Versions: 1 2 3 4 5 6 7 8 9 10 11 12 13 14 15 16 17 18 19 20 21 22 23 24 25 26 27 28

000
ASUS45 KBOU 301507
RWRCO

WEATHER ROUNDUP FOR COLORADO
NATIONAL WEATHER SERVICE DENVER/BOULDER CO
900 AM MDT THU OCT 30 2014

NOTE: "FAIR" INDICATES FEW OR NO CLOUDS BELOW 12000 FEET WITH NO
SIGNIFICANT WEATHER AND/OR OBSTRUCTIONS TO VISIBILITY.

COZ001>005-013-030-031-301600-
...NORTHWEST COLORADO...

CITY           SKY/WX    TMP DP  RH WIND       PRES   REMARKS
CRAIG          SUNNY     32  26  78 CALM      30.42R
HAYDEN         SUNNY     36  23  60 E10       30.42R
MEEKER         SUNNY     36  26  67 CALM      30.42R
MOUNT WERNER   NOT AVBL
STEAMBOAT SPGS SUNNY     34  26  71 CALM      30.44R
WALDEN         MOSUNNY   36  27  69 SE3       30.44R
$$

COZ006>008-011-301600-
...WEST CENTRAL VALLEYS...

CITY           SKY/WX    TMP DP  RH WIND       PRES   REMARKS
GRAND JUNCTION SUNNY     42  22  44 SE8       30.37R
MONTROSE       SUNNY     39  23  52 S6        30.42R
EAGLE          SUNNY     32  21  64 CALM      30.50R
RIFLE          SUNNY     34  21  59 CALM      30.43R
DELTA          SUNNY     41  20  43 NE5       30.41R
NUCLA          SUNNY     39  18  41 E3        30.42R
$$

COZ017>023-064>068-301600-
...SOUTHWEST COLORADO...

CITY           SKY/WX    TMP DP  RH WIND       PRES   REMARKS
DURANGO        MOSUNNY   35  23  61 CALM      30.39R
CORTEZ         SUNNY     39  18  42 E5        30.37R
PAGOSA SPRINGS MOSUNNY   42  23  48 CALM      30.43R
TELLURIDE      SUNNY     41  20  43 SE5       30.50R
WOLF CREEK PAS SUNNY     37  18  44 N7G16     30.59R
$$

COZ009-010-012-014-032>034-037-058>063-301600-
...CENTRAL COLORADO...

CITY           SKY/WX    TMP DP  RH WIND       PRES   REMARKS
ASPEN          SUNNY     36  19  50 CALM      30.46R
BUENA VISTA    SUNNY     36  17  46 CALM      30.44R
COPPER MTN     MOSUNNY   34  18  51 W12       30.56S WCI  25
BERTHOUD PASS  FAIR      23  19  86 MISG      30.53R
COTTONWOOD PAS SUNNY     45  12  26 SE7       30.49R
GUNNISON       MOSUNNY   25  12  58 NE3       30.52R
KREMMLING      SUNNY     30  25  80 CALM        N/A
LEADVILLE      MOSUNNY   34  15  46 CALM      30.49R
MONARCH PASS   SUNNY     32  19  59 NW17      30.65R WCI  21
SALIDA         SUNNY     38  18  44 CALM      30.51R
SUNLIGHT       SUNNY     39  18  41 CALM      30.56R
WILKERSON PASS NOT AVBL
$$

COZ069>075-301600-
...SAN LUIS VALLEY/SANGRE DE CRISTO MOUNTAINS...

CITY           SKY/WX    TMP DP  RH WIND       PRES   REMARKS
ALAMOSA        MOSUNNY   35  16  45 CALM      30.43R
LA VETA PASS   MOSUNNY   37  14  38 NE6       30.51R
SAGUACHE       SUNNY     41  14  33 NW16      30.44R
$$

COZ035-036-038>040-301600-
...NORTHERN COLORADO FRONT RANGE...

CITY           SKY/WX    TMP DP  RH WIND       PRES   REMARKS
DENVER INTL AP MOSUNNY   47  27  45 SW7       30.39R
DMNS CITY PARK   N/A     46  26  45 S5        30.39S
AURORA         MOSUNNY   45  28  52 S3        30.41R
FRONT RANGE AP NOT AVBL
ERIE MUNI ARPT SUNNY     45  28  52 SW3       30.39R
BOULDER MUN AP SUNNY     46  28  49 SW3       30.38S
CENTENNIAL     MOSUNNY   44  29  55 SE5       30.40R
BROOMFIELD     MOSUNNY   50  27  40 CALM      30.40R
FORT COLLINS   SUNNY     46  32  57 SW3       30.39R
LONGMONT       SUNNY     48  32  53 CALM      30.40S
$$

COZ041-046-047-076>085-087-088-301600-
...PIKES PEAK/PALMER DIVIDE AND SOUTHERN FOOTHILLS...

CITY           SKY/WX    TMP DP  RH WIND       PRES   REMARKS
COLO. SPRINGS  SUNNY     49  24  37 NW8       30.41R
A. F. ACADEMY  SUNNY     41  23  48 VRB6      30.41R
ELLICOTT       SUNNY     48  23  37 N14       30.39R
FALCON         SUNNY     47  21  36 N12       30.42R
FORT CARSON    SUNNY     48  25  41 N6        30.39R
LIMON          SUNNY     47  26  44 NW7       30.38R
MONUMENT HILL  SUNNY     41  25  52 NW3       30.41R
TRINIDAD       SUNNY     45  20  36 W8        30.40R
$$

COZ042>045-048>051-090-091-301600-
...NORTHEAST COLORADO...

CITY           SKY/WX    TMP DP  RH WIND       PRES   REMARKS
GREELEY ARPT   SUNNY     45  27  49 CALM      30.39R
AKRON          SUNNY     44  26  49 W10       30.35R
BURLINGTON     SUNNY     49  27  42 NW12      30.33R
WRAY           SUNNY     49  29  46 NW8       30.32R
STERLING       SUNNY     43  32  65 S3        30.34R
HOLYOKE        SUNNY     46  30  53 NW7       30.31R
FORT MORGAN    SUNNY     44  26  51 W9        30.37R
$$

COZ086-089-092>099-301600-
...SOUTHEAST COLORADO...

CITY           SKY/WX    TMP DP  RH WIND       PRES   REMARKS
PUEBLO         SUNNY     45  26  47 SW6       30.37R
LA JUNTA       SUNNY     48  25  40 W8        30.36R
LAMAR          SUNNY     49  27  42 W7        30.33R
SPRINGFIELD      N/A     52  25  35 N15G22    30.33R
$$



USA.gov is the U.S. government's official web portal to all federal, state and local government web resources and services.